When you browse on this site, cookies collect data to enhance your experience and personalize the content and advertising you see.
Visit our Privacy Policy to learn more. By continuing to use the site, you agree to this use of cookies and data.
  • In Romania
  • List of Countries
  • For 7 days
  • Water Temperature
  • Satellite Maps
  • Weather Map
  • Weather Widgets
  • user-avatar
    Login

    Hourly Weather Les Pennes-Mirabeau

    Today, 20 April, Saturday

    Time Temperature Precipitation Wind Pressure Humidity
    00:00 +17°C° 0 mm 2 mps 759 mmHg 44%
    01:00 +17°C° 0 mm 2 mps 758 mmHg 46%
    02:00 +16°C° 0 mm 2 mps 758 mmHg 48%
    03:00 +16°C° 0 mm 2 mps 758 mmHg 49%
    04:00 +16°C° 0 mm 2 mps 758 mmHg 50%
    05:00 +16°C° 0 mm 2 mps 758 mmHg 50%
    06:00 +17°C° 0 mm 3 mps 758 mmHg 48%
    07:00 +18°C° 0 mm 4 mps 758 mmHg 42%
    08:00 +20°C° 0 mm 5 mps 758 mmHg 35%
    09:00 +21°C° 0 mm 5 mps 758 mmHg 29%
    10:00 +22°C° 0 mm 5 mps 758 mmHg 27%
    11:00 +23°C° 0 mm 5 mps 757 mmHg 25%
    12:00 +24°C° 0 mm 6 mps 757 mmHg 23%
    13:00 +24°C° 0 mm 6 mps 757 mmHg 22%
    14:00 +24°C° 0 mm 7 mps 756 mmHg 22%
    15:00 +24°C° 0 mm 8 mps 756 mmHg 21%
    16:00 +23°C° 0 mm 8 mps 756 mmHg 24%
    17:00 +22°C° 0 mm 8 mps 756 mmHg 26%
    18:00 +21°C° 0 mm 8 mps 756 mmHg 28%
    19:00 +20°C° 0 mm 7 mps 756 mmHg 31%
    20:00 +20°C° 0 mm 6 mps 756 mmHg 34%
    21:00 +20°C° 0 mm 5 mps 756 mmHg 37%
    22:00 +19°C° 0 mm 3 mps 756 mmHg 41%
    23:00 +18°C° 0 mm 2 mps 756 mmHg 45%

    Tomorrow, 21 April, Sunday

    Time Temperature Precipitation Wind Pressure Humidity
    00:00 +19°C° 0 mm 1 mps 755 mmHg 48%
    01:00 +18°C° 0 mm 2 mps 755 mmHg 46%
    02:00 +18°C° 0 mm 3 mps 754 mmHg 44%
    03:00 +18°C° 0 mm 3 mps 754 mmHg 42%
    04:00 +18°C° 0 mm 4 mps 754 mmHg 43%
    05:00 +16°C° 0 mm 6 mps 753 mmHg 44%
    06:00 +16°C° 0 mm 7 mps 753 mmHg 45%
    07:00 +17°C° 0 mm 6 mps 753 mmHg 42%
    08:00 +19°C° 0 mm 6 mps 753 mmHg 38%
    09:00 +19°C° 0 mm 6 mps 753 mmHg 35%
    10:00 +20°C° 0 mm 6 mps 753 mmHg 33%
    11:00 +21°C° 0 mm 6 mps 752 mmHg 31%
    12:00 +22°C° 0 mm 6 mps 752 mmHg 29%
    13:00 +23°C° 0 mm 7 mps 751 mmHg 29%
    14:00 +23°C° 0 mm 7 mps 751 mmHg 28%
    15:00 +24°C° 0 mm 8 mps 750 mmHg 28%
    16:00 +23°C° 0 mm 8 mps 750 mmHg 29%
    17:00 +22°C° 0 mm 8 mps 750 mmHg 30%
    18:00 +21°C° 0 mm 8 mps 749 mmHg 32%
    19:00 +21°C° 0 mm 8 mps 749 mmHg 32%
    20:00 +20°C° 0 mm 8 mps 749 mmHg 33%
    21:00 +20°C° 0 mm 8 mps 749 mmHg 33%
    22:00 +20°C° 0 mm 8 mps 749 mmHg 34%
    23:00 +18°C° 0 mm 7 mps 748 mmHg 35%

    Day after tomorrow, 22 April, Monday

    Time Temperature Precipitation Wind Pressure Humidity
    00:00 +18°C° 0 mm 7 mps 748 mmHg 36%
    01:00 +19°C° 0 mm 6 mps 747 mmHg 37%
    02:00 +17°C° 0 mm 6 mps 746 mmHg 38%
    03:00 +17°C° 0 mm 5 mps 745 mmHg 39%
    04:00 +17°C° 0 mm 5 mps 745 mmHg 40%
    05:00 +17°C° 0 mm 5 mps 744 mmHg 40%
    06:00 +18°C° 0 mm 4 mps 744 mmHg 40%
    07:00 +20°C° 0 mm 5 mps 744 mmHg 35%
    08:00 +22°C° 0 mm 6 mps 743 mmHg 31%
    09:00 +23°C° 0 mm 7 mps 743 mmHg 27%
    10:00 +24°C° 0 mm 8 mps 743 mmHg 26%
    11:00 +26°C° 0 mm 9 mps 742 mmHg 25%
    12:00 +26°C° 0 mm 10 mps 742 mmHg 25%
    13:00 +26°C° 0 mm 10 mps 741 mmHg 25%
    14:00 +26°C° 0 mm 10 mps 741 mmHg 26%
    15:00 +26°C° 0 mm 11 mps 740 mmHg 26%
    16:00 +23°C° 0 mm 11 mps 740 mmHg 30%
    17:00 +22°C° 0 mm 11 mps 740 mmHg 34%
    18:00 +21°C° 0 mm 11 mps 740 mmHg 38%
    19:00 +19°C° 0.8 mm 10 mps 740 mmHg 41%
    20:00 +19°C° 0.8 mm 10 mps 740 mmHg 44%
    21:00 +18°C° 0.8 mm 9 mps 741 mmHg 48%
    22:00 +18°C° 0.8 mm 8 mps 740 mmHg 50%
    23:00 +17°C° 0.8 mm 7 mps 740 mmHg 53%

    23 April, Tuesday

    Time Temperature Precipitation Wind Pressure Humidity
    00:00 +17°C° 0.8 mm 6 mps 740 mmHg 56%
    01:00 +17°C° 0.1 mm 5 mps 739 mmHg 55%
    02:00 +17°C° 0.1 mm 4 mps 739 mmHg 54%
    03:00 +17°C° 0.1 mm 3 mps 739 mmHg 53%
    04:00 +17°C° 0.1 mm 3 mps 739 mmHg 53%
    05:00 +17°C° 0.1 mm 2 mps 739 mmHg 53%
    06:00 +17°C° 0.1 mm 2 mps 738 mmHg 53%
    07:00 +18°C° 0.2 mm 2 mps 739 mmHg 53%
    08:00 +18°C° 0.2 mm 3 mps 739 mmHg 54%
    09:00 +18°C° 0.2 mm 3 mps 739 mmHg 54%
    10:00 +18°C° 1.1 mm 2 mps 739 mmHg 57%
    11:00 +18°C° 1.1 mm 2 mps 739 mmHg 60%
    12:00 +19°C° 1.1 mm 1 mps 739 mmHg 62%
    13:00 +19°C° 0.7 mm 1 mps 739 mmHg 64%
    14:00 +19°C° 0.7 mm 1 mps 739 mmHg 65%
    15:00 +19°C° 0.7 mm 1 mps 739 mmHg 67%
    16:00 +17°C° 0.1 mm 2 mps 740 mmHg 68%
    17:00 +17°C° 0.1 mm 2 mps 740 mmHg 70%
    18:00 +17°C° 0.1 mm 3 mps 741 mmHg 72%
    19:00 +17°C° 0 mm 3 mps 741 mmHg 74%
    20:00 +17°C° 0 mm 4 mps 742 mmHg 77%
    21:00 +15°C° 0 mm 5 mps 743 mmHg 79%
    22:00 +15°C° 0 mm 5 mps 743 mmHg 81%
    23:00 +15°C° 0 mm 5 mps 743 mmHg 83%

    24 April, Wednesday

    Time Temperature Precipitation Wind Pressure Humidity
    00:00 +15°C° 0 mm 6 mps 743 mmHg 84%
    01:00 +15°C° 0 mm 6 mps 743 mmHg 84%
    02:00 +15°C° 0 mm 6 mps 743 mmHg 84%
    03:00 +14°C° 0 mm 6 mps 743 mmHg 85%
    04:00 +15°C° 0.3 mm 7 mps 744 mmHg 84%
    05:00 +15°C° 0.3 mm 7 mps 744 mmHg 84%
    06:00 +15°C° 0.3 mm 7 mps 744 mmHg 83%
    07:00 +16°C° 0.3 mm 8 mps 745 mmHg 80%
    08:00 +16°C° 0.3 mm 8 mps 745 mmHg 76%
    09:00 +17°C° 0.3 mm 8 mps 746 mmHg 73%
    10:00 +16°C° 1.2 mm 8 mps 746 mmHg 74%
    11:00 +15°C° 1.2 mm 8 mps 747 mmHg 75%
    12:00 +13°C° 1.2 mm 8 mps 747 mmHg 76%
    13:00 +15°C° 0.7 mm 7 mps 747 mmHg 73%
    14:00 +15°C° 0.7 mm 7 mps 748 mmHg 71%
    15:00 +15°C° 0.7 mm 7 mps 748 mmHg 68%
    16:00 +15°C° 0 mm 6 mps 748 mmHg 70%
    17:00 +15°C° 0 mm 6 mps 749 mmHg 71%
    18:00 +14°C° 0 mm 5 mps 749 mmHg 73%
    19:00 +14°C° 0 mm 5 mps 749 mmHg 75%
    20:00 +14°C° 0 mm 5 mps 750 mmHg 77%
    21:00 +13°C° 0 mm 5 mps 750 mmHg 79%
    22:00 +13°C° 0 mm 5 mps 750 mmHg 80%
    23:00 +13°C° 0 mm 5 mps 750 mmHg 81%

    25 April, Thursday

    Time Temperature Precipitation Wind Pressure Humidity
    00:00 +13°C° 0 mm 5 mps 751 mmHg 82%
    01:00 +13°C° 0 mm 5 mps 751 mmHg 81%
    02:00 +13°C° 0 mm 5 mps 751 mmHg 80%
    03:00 +13°C° 0 mm 5 mps 750 mmHg 79%
    04:00 +13°C° 0 mm 5 mps 750 mmHg 79%
    05:00 +13°C° 0 mm 5 mps 750 mmHg 79%
    06:00 +13°C° 0 mm 5 mps 750 mmHg 79%
    07:00 +14°C° 0 mm 6 mps 750 mmHg 73%
    08:00 +16°C° 0 mm 7 mps 750 mmHg 67%
    09:00 +17°C° 0 mm 7 mps 750 mmHg 61%
    10:00 +18°C° 0 mm 8 mps 750 mmHg 58%
    11:00 +18°C° 0 mm 8 mps 750 mmHg 54%
    12:00 +20°C° 0 mm 8 mps 750 mmHg 51%
    13:00 +19°C° 0 mm 9 mps 750 mmHg 52%
    14:00 +19°C° 0 mm 9 mps 750 mmHg 53%
    15:00 +19°C° 0 mm 9 mps 749 mmHg 55%
    16:00 +18°C° 0 mm 9 mps 750 mmHg 59%
    17:00 +17°C° 0 mm 8 mps 750 mmHg 62%
    18:00 +16°C° 0 mm 8 mps 750 mmHg 66%
    19:00 +16°C° 0.4 mm 7 mps 751 mmHg 67%
    20:00 +16°C° 0.4 mm 6 mps 751 mmHg 68%
    21:00 +15°C° 0.4 mm 5 mps 752 mmHg 69%
    22:00 +15°C° 0 mm 5 mps 753 mmHg 65%
    23:00 +15°C° 0 mm 5 mps 753 mmHg 61%
    Show more